Regional Weather Roundup
Issued by NWS

Home | Current Version | Previous Version | Graphics & Text | Print | Product List | Glossary On
Versions: 1 2 3 4 5 6 7 8 9 10 11 12 13 14 15 16 17 18 19 20 21 22 23 24 25 26 27 28 29 30 31 32 33 34 35 36 37 38 39 40 41 42 43 44 45 46 47 48 49 50
000
ASUS44 KMEG 011700
RWRTN
TENNESSEE HOURLY STATE WEATHER ROUNDUP
NATIONAL WEATHER SERVICE MEMPHIS TN
1100 AM CST SUN MAR 01 2015

TNZ002-004-019-021-049-052-054-088>092-011800-
WEST TENNESSEE

CITY           SKY/WX    TMP DP  RH WIND       PRES   REMARKS
MEMPHIS INTL   CLOUDY    40  37  89 CALM      30.37S FOG
NWS MEMPHIS      N/A     39 N/A N/A MISG        N/A
JACKSON        CLOUDY    41  39  93 CALM      30.37S FOG
DYERSBURG      CLOUDY    37  27  65 CALM      30.39S
UNION CITY     CLOUDY    37  36  93 S3        30.35S
PARIS          CLOUDY    36  36 100 CALM      30.36F
LEXINGTON      CLOUDY    43  43 100 CALM      30.36F VSB 1
SAVANNAH       CLOUDY    48  48 100 CALM      30.38F
$$

TNZ008-025-027-028-033-062-065-066-011800-
NORTH MIDDLE TENNESSEE

CITY           SKY/WX    TMP DP  RH WIND       PRES   REMARKS
NASHVILLE      CLOUDY    50  45  83 SW6       30.39R
CLARKSVILLE    CLOUDY    39  38  96 SE7       30.37F FOG     WCI  34
COOKEVILLE     CLOUDY    52  46  82 S6        30.37F
CROSSVILLE     CLOUDY    46  42  86 S8        30.39F
$$

TNZ061-075-076-078-094-096-097-011800-
SOUTH MIDDLE TENNESSEE

CITY           SKY/WX    TMP DP  RH WIND       PRES   REMARKS
FAYETTEVILLE   CLOUDY    46  41  81 SW7         N/A
TULLAHOMA      CLOUDY    48  43  81 S7        30.39S
WINCHESTER     CLOUDY    48  43  81 SE8       30.40S
COLUMBIA       CLOUDY   N/A N/A N/A S8        30.37S
SHELBYVILLE    CLOUDY    50  46  87 SW7       30.40S
$$

TNZ017-018-042-046-047-011800-
NORTHEAST TENNESSEE

CITY           SKY/WX    TMP DP  RH WIND       PRES   REMARKS
TRI CITIES     CLOUDY    49  35  58 NW7       30.39F
ELIZABETHTON   MOSUNNY   59  41  51 CALM      30.36F
$$

TNZ012-013-036-069-073-074-011800-
CENTRAL EAST TENNESSEE

CITY           SKY/WX    TMP DP  RH WIND       PRES   REMARKS
KNOXVILLE      CLOUDY    44  32  62 CALM      30.43S
OAK RIDGE      CLOUDY    46  34  62 VRB5      30.44F
GATLINBURG     PTSUNNY   48  30  49 VRB5      30.42R
$$

TNZ083-085-099-011800-
SOUTHEAST TENNESSEE

CITY           SKY/WX    TMP DP  RH WIND       PRES   REMARKS
CHATTANOOGA    CLOUDY    46  38  73 S10       30.45S FOG
$$

SKY/WX REPORTED AS FAIR MEANS FEW OR NO CLOUDS BELOW
12 THOUSAND FEET.




USA.gov is the U.S. government's official web portal to all federal, state and local government web resources and services.